TimeEDT,TemperatureF,Dew PointF,Humidity,Sea Level PressureIn,VisibilityMPH,Wind Direction,Wind SpeedMPH,Gust SpeedMPH,PrecipitationIn,Events,Conditions,WindDirDegrees,DateUTC
12:53 AM,69.1,66.0,90,29.88,10.0,Calm,Calm,-,N/A,,Clear,0,2011-10-18 04:53:00
1:53 AM,69.1,66.9,93,29.88,9.0,Calm,Calm,-,N/A,,Clear,0,2011-10-18 05:53:00
2:53 AM,70.0,66.9,90,29.85,10.0,Calm,Calm,-,N/A,,Clear,0,2011-10-18 06:53:00
3:53 AM,73.0,70.0,90,29.84,8.0,SW,5.8,-,0.01,Rain,Light Rain,220,2011-10-18 07:53:00
4:00 AM,73.4,71.6,94,29.84,5.0,SSW,3.5,-,0.01,Rain,Light Rain,210,2011-10-18 08:00:00
4:07 AM,73.4,71.6,94,29.83,1.8,West,9.2,-,0.15,Rain,Heavy Rain,260,2011-10-18 08:07:00
4:36 AM,73.4,71.6,94,29.83,6.0,Calm,Calm,-,0.19,Rain,Rain,0,2011-10-18 08:36:00
4:53 AM,73.9,71.1,91,29.83,10.0,SSE,4.6,-,0.19,,Mostly Cloudy,160,2011-10-18 08:53:00
5:53 AM,73.0,70.0,90,29.83,10.0,Calm,Calm,-,0.01,,Overcast,0,2011-10-18 09:53:00
6:25 AM,73.4,69.8,88,29.83,10.0,East,5.8,-,0.01,Rain,Light Rain,90,2011-10-18 10:25:00
6:44 AM,73.4,71.6,94,29.82,10.0,East,6.9,-,0.01,,Mostly Cloudy,90,2011-10-18 10:44:00
6:53 AM,73.0,70.0,90,29.82,10.0,East,5.8,-,0.01,,Mostly Cloudy,80,2011-10-18 10:53:00
7:53 AM,72.0,70.0,93,29.82,2.5,ESE,4.6,-,0.14,Rain,Light Rain,120,2011-10-18 11:53:00
8:00 AM,71.6,69.8,94,29.82,6.0,ESE,3.5,-,0.00,Rain,Light Rain,110,2011-10-18 12:00:00
8:53 AM,73.9,72.0,93,29.83,10.0,Calm,Calm,-,0.00,,Mostly Cloudy,0,2011-10-18 12:53:00
9:03 AM,73.4,71.6,94,29.83,10.0,Calm,Calm,-,N/A,,Overcast,0,2011-10-18 13:03:00
9:28 AM,75.2,71.6,89,29.83,7.0,Calm,Calm,-,0.00,Rain,Light Rain,0,2011-10-18 13:28:00
9:53 AM,75.0,72.0,90,29.83,10.0,Calm,Calm,-,0.00,,Overcast,0,2011-10-18 13:53:00
10:44 AM,77.0,71.6,83,29.82,10.0,SSE,4.6,-,N/A,,Overcast,160,2011-10-18 14:44:00
11:13 AM,78.8,71.6,78,29.81,10.0,South,4.6,-,N/A,,Overcast,180,2011-10-18 15:13:00
11:26 AM,78.8,71.6,78,29.81,10.0,SSE,4.6,-,N/A,,Overcast,150,2011-10-18 15:26:00
11:53 AM,79.0,72.0,79,29.79,10.0,SSE,4.6,-,N/A,,Mostly Cloudy,150,2011-10-18 15:53:00
12:53 PM,80.1,71.1,74,29.76,10.0,SSW,6.9,-,0.00,Rain,Rain,200,2011-10-18 16:53:00
2:16 PM,80.6,71.6,74,29.69,10.0,SSE,6.9,-,N/A,,Overcast,160,2011-10-18 18:16:00
2:25 PM,82.4,71.6,70,29.69,10.0,South,6.9,-,N/A,,Overcast,170,2011-10-18 18:25:00
2:53 PM,81.0,72.0,74,29.68,10.0,SSE,9.2,-,N/A,,Overcast,150,2011-10-18 18:53:00
3:13 PM,78.8,71.6,78,29.67,10.0,SE,6.9,-,0.00,,Mostly Cloudy,140,2011-10-18 19:13:00
3:53 PM,80.1,73.0,79,29.66,10.0,SE,6.9,-,0.00,,Overcast,140,2011-10-18 19:53:00
4:53 PM,80.1,73.0,79,29.66,10.0,SSE,6.9,-,N/A,,Mostly Cloudy,150,2011-10-18 20:53:00
5:53 PM,80.1,71.1,74,29.66,10.0,South,5.8,-,N/A,,Overcast,170,2011-10-18 21:53:00
6:53 PM,78.1,73.0,84,29.65,10.0,SSE,4.6,-,N/A,,Overcast,150,2011-10-18 22:53:00
7:53 PM,77.0,73.0,88,29.64,10.0,SSE,5.8,-,N/A,,Mostly Cloudy,160,2011-10-18 23:53:00
9:53 PM,73.9,71.1,91,29.59,10.0,SSE,5.8,-,0.00,,Partly Cloudy,160,2011-10-19 01:53:00
10:53 PM,75.0,71.1,87,29.58,10.0,South,8.1,-,N/A,,Mostly Cloudy,170,2011-10-19 02:53:00
11:53 PM,75.0,71.1,87,29.55,10.0,South,6.9,-,N/A,,Overcast,170,2011-10-19 03:53:00